• In Uzbekistan
  • List of Countries
  • For 7 days
  • Water Temperature
  • Satellite Maps
  • Weather Map
  • Weather Widgets
  • user-avatar
    Login

    Hourly Weather Annaba

    Today, 23 March, Thursday

    Time Temperature Precipitation Wind Pressure Humidity
    00:00 +12°C° 0 mm 2 mps 760 mmHg 93%
    01:00 +12°C° 0 mm 2 mps 760 mmHg 93%
    02:00 +12°C° 0 mm 2 mps 760 mmHg 92%
    03:00 +12°C° 0 mm 2 mps 759 mmHg 91%
    04:00 +12°C° 0 mm 2 mps 759 mmHg 90%
    05:00 +12°C° 0 mm 2 mps 759 mmHg 86%
    06:00 +11°C° 0 mm 3 mps 759 mmHg 83%
    07:00 +11°C° 0 mm 3 mps 759 mmHg 80%
    08:00 +14°C° 0 mm 3 mps 759 mmHg 71%
    09:00 +18°C° 0 mm 3 mps 759 mmHg 63%
    10:00 +21°C° 0 mm 3 mps 758 mmHg 54%
    11:00 +24°C° 0 mm 3 mps 758 mmHg 49%
    12:00 +26°C° 0 mm 3 mps 758 mmHg 44%
    13:00 +27°C° 0 mm 4 mps 757 mmHg 38%
    14:00 +27°C° 0 mm 4 mps 757 mmHg 40%
    15:00 +27°C° 0 mm 4 mps 757 mmHg 41%
    16:00 +28°C° 0 mm 5 mps 757 mmHg 43%
    17:00 +23°C° 0 mm 5 mps 757 mmHg 54%
    18:00 +20°C° 0 mm 5 mps 757 mmHg 65%
    19:00 +16°C° 0 mm 5 mps 757 mmHg 76%
    20:00 +15°C° 0 mm 5 mps 758 mmHg 79%
    21:00 +14°C° 0 mm 4 mps 758 mmHg 81%
    22:00 +12°C° 0 mm 4 mps 759 mmHg 84%
    23:00 +12°C° 0 mm 3 mps 759 mmHg 85%

    Tomorrow, 24 March, Friday

    Time Temperature Precipitation Wind Pressure Humidity
    00:00 +12°C° 0 mm 3 mps 759 mmHg 86%
    01:00 +13°C° 0 mm 2 mps 759 mmHg 88%
    02:00 +13°C° 0 mm 2 mps 759 mmHg 86%
    03:00 +13°C° 0 mm 2 mps 759 mmHg 84%
    04:00 +13°C° 0 mm 2 mps 758 mmHg 82%
    05:00 +12°C° 0 mm 3 mps 758 mmHg 81%
    06:00 +12°C° 0 mm 3 mps 758 mmHg 79%
    07:00 +13°C° 0 mm 4 mps 758 mmHg 78%
    08:00 +15°C° 0 mm 4 mps 758 mmHg 69%
    09:00 +19°C° 0 mm 5 mps 758 mmHg 61%
    10:00 +22°C° 0 mm 5 mps 758 mmHg 52%
    11:00 +23°C° 0 mm 6 mps 758 mmHg 48%
    12:00 +24°C° 0 mm 7 mps 757 mmHg 43%
    13:00 +26°C° 0 mm 7 mps 757 mmHg 39%
    14:00 +26°C° 0 mm 7 mps 756 mmHg 40%
    15:00 +26°C° 0 mm 8 mps 756 mmHg 42%
    16:00 +26°C° 0 mm 8 mps 755 mmHg 44%
    17:00 +24°C° 0 mm 8 mps 755 mmHg 46%
    18:00 +22°C° 0 mm 8 mps 755 mmHg 48%
    19:00 +21°C° 0 mm 8 mps 755 mmHg 51%
    20:00 +20°C° 0 mm 8 mps 756 mmHg 54%
    21:00 +18°C° 0 mm 8 mps 756 mmHg 58%
    22:00 +16°C° 0 mm 8 mps 757 mmHg 61%
    23:00 +15°C° 0 mm 8 mps 758 mmHg 70%

    Day after tomorrow, 25 March, Saturday

    Time Temperature Precipitation Wind Pressure Humidity
    00:00 +12°C° 0 mm 7 mps 758 mmHg 79%
    01:00 +11°C° 0 mm 7 mps 759 mmHg 87%
    02:00 +11°C° 0 mm 6 mps 759 mmHg 89%
    03:00 +11°C° 0 mm 6 mps 760 mmHg 91%
    04:00 +12°C° 0 mm 5 mps 760 mmHg 93%
    05:00 +12°C° 0.1 mm 4 mps 761 mmHg 92%
    06:00 +12°C° 0.1 mm 4 mps 761 mmHg 92%
    07:00 +12°C° 0.1 mm 4 mps 762 mmHg 91%
    08:00 +12°C° 0 mm 3 mps 762 mmHg 89%
    09:00 +13°C° 0 mm 3 mps 762 mmHg 87%
    10:00 +13°C° 0 mm 3 mps 763 mmHg 85%
    11:00 +14°C° 0 mm 3 mps 763 mmHg 82%
    12:00 +14°C° 0 mm 3 mps 763 mmHg 78%
    13:00 +16°C° 0 mm 3 mps 763 mmHg 75%
    14:00 +16°C° 0 mm 3 mps 763 mmHg 75%
    15:00 +16°C° 0 mm 3 mps 762 mmHg 74%
    16:00 +16°C° 0 mm 3 mps 762 mmHg 74%
    17:00 +14°C° 0 mm 3 mps 762 mmHg 79%
    18:00 +13°C° 0 mm 2 mps 763 mmHg 84%
    19:00 +12°C° 0 mm 1 mps 763 mmHg 90%
    20:00 +11°C° 0 mm 1 mps 763 mmHg 91%
    21:00 +10°C° 0 mm 1 mps 764 mmHg 92%
    22:00 +9°C° 0 mm 1 mps 764 mmHg 93%
    23:00 +10°C° 0 mm 1 mps 764 mmHg 93%

    26 March, Sunday

    Time Temperature Precipitation Wind Pressure Humidity
    00:00 +10°C° 0 mm 1 mps 764 mmHg 92%
    01:00 +10°C° 0 mm 1 mps 764 mmHg 92%
    02:00 +10°C° 0 mm 1 mps 764 mmHg 92%
    03:00 +9°C° 0 mm 1 mps 763 mmHg 91%
    04:00 +8°C° 0 mm 2 mps 763 mmHg 91%
    05:00 +9°C° 0 mm 2 mps 763 mmHg 90%
    06:00 +10°C° 0 mm 2 mps 763 mmHg 89%
    07:00 +11°C° 0 mm 3 mps 763 mmHg 87%
    08:00 +13°C° 0 mm 3 mps 763 mmHg 79%
    09:00 +17°C° 0 mm 3 mps 762 mmHg 70%
    10:00 +20°C° 0 mm 2 mps 762 mmHg 61%
    11:00 +21°C° 0 mm 3 mps 762 mmHg 55%
    12:00 +22°C° 0 mm 3 mps 761 mmHg 48%
    13:00 +25°C° 0 mm 3 mps 761 mmHg 41%
    14:00 +23°C° 0 mm 4 mps 760 mmHg 44%
    15:00 +23°C° 0 mm 4 mps 760 mmHg 46%
    16:00 +23°C° 0 mm 5 mps 759 mmHg 48%
    17:00 +20°C° 0 mm 4 mps 759 mmHg 60%
    18:00 +17°C° 0 mm 4 mps 759 mmHg 72%
    19:00 +13°C° 0 mm 4 mps 759 mmHg 84%
    20:00 +13°C° 0 mm 3 mps 759 mmHg 83%
    21:00 +12°C° 0 mm 3 mps 760 mmHg 82%
    22:00 +12°C° 0 mm 2 mps 760 mmHg 81%
    23:00 +12°C° 0 mm 2 mps 760 mmHg 77%

    27 March, Monday

    Time Temperature Precipitation Wind Pressure Humidity
    00:00 +12°C° 0 mm 3 mps 759 mmHg 74%
    01:00 +12°C° 0 mm 3 mps 759 mmHg 70%
    02:00 +12°C° 0 mm 3 mps 759 mmHg 66%
    03:00 +12°C° 0 mm 3 mps 758 mmHg 62%
    04:00 +12°C° 0 mm 4 mps 758 mmHg 58%
    05:00 +13°C° 0 mm 4 mps 757 mmHg 58%
    06:00 +13°C° 0 mm 4 mps 757 mmHg 57%
    07:00 +13°C° 0 mm 4 mps 757 mmHg 56%
    08:00 +17°C° 0 mm 4 mps 757 mmHg 52%
    09:00 +20°C° 0 mm 4 mps 757 mmHg 48%
    10:00 +23°C° 0 mm 4 mps 757 mmHg 44%
    11:00 +25°C° 0 mm 3 mps 757 mmHg 39%
    12:00 +27°C° 0 mm 3 mps 756 mmHg 34%
    13:00 +28°C° 0 mm 3 mps 756 mmHg 29%
    14:00 +28°C° 0 mm 3 mps 756 mmHg 30%
    15:00 +28°C° 0 mm 3 mps 755 mmHg 31%
    16:00 +28°C° 0 mm 4 mps 755 mmHg 32%
    17:00 +23°C° 0 mm 4 mps 756 mmHg 48%
    18:00 +19°C° 0 mm 5 mps 756 mmHg 63%
    19:00 +15°C° 0 mm 6 mps 757 mmHg 79%
    20:00 +14°C° 0 mm 6 mps 758 mmHg 82%
    21:00 +13°C° 0 mm 6 mps 759 mmHg 84%
    22:00 +12°C° 0 mm 5 mps 760 mmHg 87%
    23:00 +10°C° 0 mm 5 mps 760 mmHg 88%

    28 March, Tuesday

    Time Temperature Precipitation Wind Pressure Humidity
    00:00 +10°C° 0 mm 5 mps 760 mmHg 88%
    01:00 +10°C° 0 mm 5 mps 760 mmHg 89%
    02:00 +10°C° 0 mm 4 mps 760 mmHg 88%
    03:00 +10°C° 0 mm 4 mps 760 mmHg 88%
    04:00 +10°C° 0 mm 4 mps 760 mmHg 87%
    05:00 +10°C° 0 mm 4 mps 760 mmHg 86%
    06:00 +10°C° 0 mm 4 mps 761 mmHg 84%
    07:00 +11°C° 0 mm 3 mps 761 mmHg 83%
    08:00 +14°C° 0 mm 3 mps 761 mmHg 73%
    09:00 +17°C° 0 mm 3 mps 761 mmHg 63%
    10:00 +20°C° 0 mm 3 mps 761 mmHg 53%
    11:00 +20°C° 0 mm 3 mps 761 mmHg 51%
    12:00 +21°C° 0 mm 4 mps 761 mmHg 49%
    13:00 +22°C° 0 mm 4 mps 761 mmHg 47%
    14:00 +22°C° 0 mm 5 mps 761 mmHg 51%
    15:00 +21°C° 0 mm 6 mps 760 mmHg 56%
    16:00 +20°C° 0 mm 6 mps 760 mmHg 60%
    17:00 +17°C° 0 mm 5 mps 761 mmHg 70%
    18:00 +15°C° 0 mm 5 mps 761 mmHg 79%
    19:00 +13°C° 0 mm 4 mps 762 mmHg 88%
    20:00 +12°C° 0 mm 4 mps 762 mmHg 89%
    21:00 +12°C° 0 mm 4 mps 763 mmHg 90%
    22:00 +11°C° 0 mm 4 mps 763 mmHg 90%
    23:00 +11°C° 0 mm 4 mps 763 mmHg 90%
    Show more